owner,sensor,date,latitude,longitude,vertical_datum,sea_water_temperature,qcFlag 
TCOON,ioos:station:TCOON:003:1,2012-04-01T00:00:00Z,26.8015,-97.4706,0.0,27.7,11111222 
TCOON,ioos:station:TCOON:003:1,2012-04-01T01:00:00Z,26.8015,-97.4706,0.0,27.6,11111222 
TCOON,ioos:station:TCOON:003:1,2012-04-01T02:00:00Z,26.8015,-97.4706,0.0,27.3,11111222 
TCOON,ioos:station:TCOON:003:1,2012-04-01T03:00:00Z,26.8015,-97.4706,0.0,27.1,11111222 
TCOON,ioos:station:TCOON:003:1,2012-04-01T04:00:00Z,26.8015,-97.4706,0.0,26.9,11111222 
TCOON,ioos:station:TCOON:003:1,2012-04-01T05:00:00Z,26.8015,-97.4706,0.0,26.6,11111222 
TCOON,ioos:station:TCOON:003:1,2012-04-01T07:00:00Z,26.8015,-97.4706,0.0,26.1,11111222 
TCOON,ioos:station:TCOON:003:1,2012-04-01T08:00:00Z,26.8015,-97.4706,0.0,26.1,11111222 
TCOON,ioos:station:TCOON:003:1,2012-04-01T09:00:00Z,26.8015,-97.4706,0.0,26.0,11111222 
TCOON,ioos:station:TCOON:003:1,2012-04-01T10:00:00Z,26.8015,-97.4706,0.0,25.8,11111222 
TCOON,ioos:station:TCOON:003:1,2012-04-01T11:00:00Z,26.8015,-97.4706,0.0,25.6,11111222 
TCOON,ioos:station:TCOON:003:1,2012-04-01T12:00:00Z,26.8015,-97.4706,0.0,25.3,11111222 
TCOON,ioos:station:TCOON:003:1,2012-04-01T13:00:00Z,26.8015,-97.4706,0.0,25.3,11111222 
TCOON,ioos:station:TCOON:003:1,2012-04-01T14:00:00Z,26.8015,-97.4706,0.0,25.6,11111222 
TCOON,ioos:station:TCOON:003:1,2012-04-01T15:00:00Z,26.8015,-97.4706,0.0,25.9,11111222 
TCOON,ioos:station:TCOON:003:1,2012-04-01T16:00:00Z,26.8015,-97.4706,0.0,26.1,11111222 
TCOON,ioos:station:TCOON:003:1,2012-04-01T17:00:00Z,26.8015,-97.4706,0.0,26.6,11111222 
TCOON,ioos:station:TCOON:003:1,2012-04-01T18:00:00Z,26.8015,-97.4706,0.0,26.7,11111222 
TCOON,ioos:station:TCOON:003:1,2012-04-01T19:00:00Z,26.8015,-97.4706,0.0,26.9,11111222 
TCOON,ioos:station:TCOON:003:1,2012-04-01T20:00:00Z,26.8015,-97.4706,0.0,27.3,11111222 
TCOON,ioos:station:TCOON:003:1,2012-04-01T21:00:00Z,26.8015,-97.4706,0.0,27.5,11111222 
TCOON,ioos:station:TCOON:003:1,2012-04-01T22:00:00Z,26.8015,-97.4706,0.0,27.5,11111222 
TCOON,ioos:station:TCOON:003:1,2012-04-01T23:00:00Z,26.8015,-97.4706,0.0,27.3,11111222 
TCOON,ioos:station:TCOON:003:1,2012-04-02T00:00:00Z,26.8015,-97.4706,0.0,27.0,11111222 
TCOON,ioos:station:TCOON:003:1,2012-04-02T01:00:00Z,26.8015,-97.4706,0.0,26.7,11111222 
TCOON,ioos:station:TCOON:003:1,2012-04-02T02:00:00Z,26.8015,-97.4706,0.0,26.5,11111222 
TCOON,ioos:station:TCOON:003:1,2012-04-02T03:00:00Z,26.8015,-97.4706,0.0,26.2,11111222 
TCOON,ioos:station:TCOON:003:1,2012-04-02T04:00:00Z,26.8015,-97.4706,0.0,26.0,11111222 
TCOON,ioos:station:TCOON:003:1,2012-04-02T05:00:00Z,26.8015,-97.4706,0.0,25.9,11111222 
TCOON,ioos:station:TCOON:003:1,2012-04-02T06:00:00Z,26.8015,-97.4706,0.0,25.8,11111222 
TCOON,ioos:station:TCOON:003:1,2012-04-02T07:00:00Z,26.8015,-97.4706,0.0,25.6,11111222 
TCOON,ioos:station:TCOON:003:1,2012-04-02T08:00:00Z,26.8015,-97.4706,0.0,25.4,11111222 
TCOON,ioos:station:TCOON:003:1,2012-04-02T09:00:00Z,26.8015,-97.4706,0.0,25.1,11111222 
TCOON,ioos:station:TCOON:003:1,2012-04-02T10:00:00Z,26.8015,-97.4706,0.0,25.3,11111222 
TCOON,ioos:station:TCOON:003:1,2012-04-02T11:00:00Z,26.8015,-97.4706,0.0,25.3,11111222 
TCOON,ioos:station:TCOON:003:1,2012-04-02T13:00:00Z,26.8015,-97.4706,0.0,24.9,11111222 
TCOON,ioos:station:TCOON:003:1,2012-04-02T15:00:00Z,26.8015,-97.4706,0.0,25.1,11111222 
TCOON,ioos:station:TCOON:003:1,2012-04-02T16:00:00Z,26.8015,-97.4706,0.0,25.8,11111222 
TCOON,ioos:station:TCOON:003:1,2012-04-02T17:00:00Z,26.8015,-97.4706,0.0,26.3,11111222 
TCOON,ioos:station:TCOON:003:1,2012-04-02T18:00:00Z,26.8015,-97.4706,0.0,26.9,11111222 
TCOON,ioos:station:TCOON:003:1,2012-04-02T19:00:00Z,26.8015,-97.4706,0.0,27.3,11111222 
TCOON,ioos:station:TCOON:003:1,2012-04-02T20:00:00Z,26.8015,-97.4706,0.0,27.6,11111222 
TCOON,ioos:station:TCOON:003:1,2012-04-02T21:00:00Z,26.8015,-97.4706,0.0,27.7,11111222 
TCOON,ioos:station:TCOON:003:1,2012-04-02T22:00:00Z,26.8015,-97.4706,0.0,27.7,11111222 
TCOON,ioos:station:TCOON:003:1,2012-04-02T23:00:00Z,26.8015,-97.4706,0.0,27.6,11111222 
TCOON,ioos:station:TCOON:003:1,2012-04-03T00:00:00Z,26.8015,-97.4706,0.0,27.3,11111222 
TCOON,ioos:station:TCOON:003:1,2012-04-03T01:00:00Z,26.8015,-97.4706,0.0,27.1,11111222 
TCOON,ioos:station:TCOON:003:1,2012-04-03T02:00:00Z,26.8015,-97.4706,0.0,26.9,11111222 
TCOON,ioos:station:TCOON:003:1,2012-04-03T03:00:00Z,26.8015,-97.4706,0.0,26.7,11111222 
TCOON,ioos:station:TCOON:003:1,2012-04-03T04:00:00Z,26.8015,-97.4706,0.0,26.5,11111222 
TCOON,ioos:station:TCOON:003:1,2012-04-03T05:00:00Z,26.8015,-97.4706,0.0,26.3,11111222 
TCOON,ioos:station:TCOON:003:1,2012-04-03T06:00:00Z,26.8015,-97.4706,0.0,26.1,11111222 
TCOON,ioos:station:TCOON:003:1,2012-04-03T07:00:00Z,26.8015,-97.4706,0.0,25.9,11111222 
TCOON,ioos:station:TCOON:003:1,2012-04-03T08:00:00Z,26.8015,-97.4706,0.0,25.8,11111222 
TCOON,ioos:station:TCOON:003:1,2012-04-03T16:00:00Z,26.8015,-97.4706,0.0,25.9,11111222 
TCOON,ioos:station:TCOON:003:1,2012-04-03T17:00:00Z,26.8015,-97.4706,0.0,26.3,11111222 
TCOON,ioos:station:TCOON:003:1,2012-04-03T18:00:00Z,26.8015,-97.4706,0.0,26.3,11111222 
TCOON,ioos:station:TCOON:003:1,2012-04-03T19:00:00Z,26.8015,-97.4706,0.0,27.3,11111222 
TCOON,ioos:station:TCOON:003:1,2012-04-03T20:00:00Z,26.8015,-97.4706,0.0,27.6,11111222 
TCOON,ioos:station:TCOON:003:1,2012-04-03T21:00:00Z,26.8015,-97.4706,0.0,28.1,11111222 
TCOON,ioos:station:TCOON:003:1,2012-04-03T22:00:00Z,26.8015,-97.4706,0.0,28.2,11111222 
TCOON,ioos:station:TCOON:003:1,2012-04-03T23:00:00Z,26.8015,-97.4706,0.0,28.2,11111222 
TCOON,ioos:station:TCOON:003:1,2012-04-04T00:00:00Z,26.8015,-97.4706,0.0,28.0,11111222 
TCOON,ioos:station:TCOON:003:1,2012-04-04T01:00:00Z,26.8015,-97.4706,0.0,27.8,11111222 
TCOON,ioos:station:TCOON:003:1,2012-04-04T02:00:00Z,26.8015,-97.4706,0.0,27.5,11111222 
TCOON,ioos:station:TCOON:003:1,2012-04-04T03:00:00Z,26.8015,-97.4706,0.0,27.4,11111222 
TCOON,ioos:station:TCOON:003:1,2012-04-04T04:00:00Z,26.8015,-97.4706,0.0,27.2,11111222 
TCOON,ioos:station:TCOON:003:1,2012-04-04T05:00:00Z,26.8015,-97.4706,0.0,27.0,11111222 
TCOON,ioos:station:TCOON:003:1,2012-04-04T06:00:00Z,26.8015,-97.4706,0.0,26.9,11111222 
TCOON,ioos:station:TCOON:003:1,2012-04-04T07:00:00Z,26.8015,-97.4706,0.0,26.7,11111222 
TCOON,ioos:station:TCOON:003:1,2012-04-04T08:00:00Z,26.8015,-97.4706,0.0,26.5,11111222 
TCOON,ioos:station:TCOON:003:1,2012-04-04T09:00:00Z,26.8015,-97.4706,0.0,26.5,11111222 
TCOON,ioos:station:TCOON:003:1,2012-04-04T10:00:00Z,26.8015,-97.4706,0.0,26.4,11111222 
TCOON,ioos:station:TCOON:003:1,2012-04-04T11:00:00Z,26.8015,-97.4706,0.0,26.3,11111222 
TCOON,ioos:station:TCOON:003:1,2012-04-04T12:00:00Z,26.8015,-97.4706,0.0,26.3,11111222 
TCOON,ioos:station:TCOON:003:1,2012-04-04T13:00:00Z,26.8015,-97.4706,0.0,26.3,11111222 
TCOON,ioos:station:TCOON:003:1,2012-04-04T14:00:00Z,26.8015,-97.4706,0.0,26.3,11111222 
TCOON,ioos:station:TCOON:003:1,2012-04-04T15:00:00Z,26.8015,-97.4706,0.0,26.7,11111222 
TCOON,ioos:station:TCOON:003:1,2012-04-04T16:00:00Z,26.8015,-97.4706,0.0,27.1,11111222 
TCOON,ioos:station:TCOON:003:1,2012-04-04T17:00:00Z,26.8015,-97.4706,0.0,27.8,11111222 
TCOON,ioos:station:TCOON:003:1,2012-04-04T18:00:00Z,26.8015,-97.4706,0.0,28.8,11111222 
TCOON,ioos:station:TCOON:003:1,2012-04-04T19:00:00Z,26.8015,-97.4706,0.0,29.4,11111222 
TCOON,ioos:station:TCOON:003:1,2012-04-04T20:00:00Z,26.8015,-97.4706,0.0,29.5,11111222 
TCOON,ioos:station:TCOON:003:1,2012-04-04T21:00:00Z,26.8015,-97.4706,0.0,29.6,11111222 
TCOON,ioos:station:TCOON:003:1,2012-04-04T22:00:00Z,26.8015,-97.4706,0.0,29.3,11111222 
TCOON,ioos:station:TCOON:003:1,2012-04-04T23:00:00Z,26.8015,-97.4706,0.0,29.3,11111222 
TCOON,ioos:station:TCOON:003:1,2012-04-05T00:00:00Z,26.8015,-97.4706,0.0,28.9,11111222 
TCOON,ioos:station:TCOON:003:1,2012-04-05T01:00:00Z,26.8015,-97.4706,0.0,28.6,11111222 
TCOON,ioos:station:TCOON:003:1,2012-04-05T02:00:00Z,26.8015,-97.4706,0.0,28.6,11111222 
TCOON,ioos:station:TCOON:003:1,2012-04-05T03:00:00Z,26.8015,-97.4706,0.0,28.4,11111222 
TCOON,ioos:station:TCOON:003:1,2012-04-05T04:00:00Z,26.8015,-97.4706,0.0,28.2,11111222 
TCOON,ioos:station:TCOON:003:1,2012-04-05T05:00:00Z,26.8015,-97.4706,0.0,28.1,11111222 
TCOON,ioos:station:TCOON:003:1,2012-04-05T06:00:00Z,26.8015,-97.4706,0.0,27.9,11111222 
TCOON,ioos:station:TCOON:003:1,2012-04-05T07:00:00Z,26.8015,-97.4706,0.0,27.8,11111222 
TCOON,ioos:station:TCOON:003:1,2012-04-05T08:00:00Z,26.8015,-97.4706,0.0,27.7,11111222 
TCOON,ioos:station:TCOON:003:1,2012-04-05T09:00:00Z,26.8015,-97.4706,0.0,27.4,11111222 
TCOON,ioos:station:TCOON:003:1,2012-04-05T10:00:00Z,26.8015,-97.4706,0.0,27.2,11111222 
TCOON,ioos:station:TCOON:003:1,2012-04-05T11:00:00Z,26.8015,-97.4706,0.0,27.1,11111222 
TCOON,ioos:station:TCOON:003:1,2012-04-05T12:00:00Z,26.8015,-97.4706,0.0,26.9,11111222 
TCOON,ioos:station:TCOON:003:1,2012-04-05T13:00:00Z,26.8015,-97.4706,0.0,26.9,11111222 
TCOON,ioos:station:TCOON:003:1,2012-04-05T14:00:00Z,26.8015,-97.4706,0.0,27.1,11111222 
TCOON,ioos:station:TCOON:003:1,2012-04-05T15:00:00Z,26.8015,-97.4706,0.0,27.6,11111222 
TCOON,ioos:station:TCOON:003:1,2012-04-05T16:00:00Z,26.8015,-97.4706,0.0,28.1,11111222 
TCOON,ioos:station:TCOON:003:1,2012-04-05T17:00:00Z,26.8015,-97.4706,0.0,28.8,11111222 
TCOON,ioos:station:TCOON:003:1,2012-04-05T18:00:00Z,26.8015,-97.4706,0.0,29.3,11111222 
TCOON,ioos:station:TCOON:003:1,2012-04-05T19:00:00Z,26.8015,-97.4706,0.0,29.8,11111222 
TCOON,ioos:station:TCOON:003:1,2012-04-05T20:00:00Z,26.8015,-97.4706,0.0,30.1,11111222 
TCOON,ioos:station:TCOON:003:1,2012-04-05T21:00:00Z,26.8015,-97.4706,0.0,30.6,11111222 
TCOON,ioos:station:TCOON:003:1,2012-04-05T22:00:00Z,26.8015,-97.4706,0.0,29.8,11111222 
TCOON,ioos:station:TCOON:003:1,2012-04-05T23:00:00Z,26.8015,-97.4706,0.0,29.7,11111222 
TCOON,ioos:station:TCOON:003:1,2012-04-06T00:00:00Z,26.8015,-97.4706,0.0,29.5,11111222 
TCOON,ioos:station:TCOON:003:1,2012-04-06T01:00:00Z,26.8015,-97.4706,0.0,29.2,11111222 
TCOON,ioos:station:TCOON:003:1,2012-04-06T02:00:00Z,26.8015,-97.4706,0.0,29.1,11111222 
TCOON,ioos:station:TCOON:003:1,2012-04-06T03:00:00Z,26.8015,-97.4706,0.0,28.8,11111222 
TCOON,ioos:station:TCOON:003:1,2012-04-06T04:00:00Z,26.8015,-97.4706,0.0,28.5,11111222 
TCOON,ioos:station:TCOON:003:1,2012-04-06T05:00:00Z,26.8015,-97.4706,0.0,28.1,11111222 
TCOON,ioos:station:TCOON:003:1,2012-04-06T06:00:00Z,26.8015,-97.4706,0.0,27.8,11111222 
TCOON,ioos:station:TCOON:003:1,2012-04-06T07:00:00Z,26.8015,-97.4706,0.0,27.6,11111222 
TCOON,ioos:station:TCOON:003:1,2012-04-06T08:00:00Z,26.8015,-97.4706,0.0,27.3,11111222 
TCOON,ioos:station:TCOON:003:1,2012-04-06T16:00:00Z,26.8015,-97.4706,0.0,27.5,11111222 
TCOON,ioos:station:TCOON:003:1,2012-04-06T17:00:00Z,26.8015,-97.4706,0.0,27.9,11111222 
TCOON,ioos:station:TCOON:003:1,2012-04-06T18:00:00Z,26.8015,-97.4706,0.0,28.2,11111222 
TCOON,ioos:station:TCOON:003:1,2012-04-06T19:00:00Z,26.8015,-97.4706,0.0,28.5,11111222 
TCOON,ioos:station:TCOON:003:1,2012-04-06T20:00:00Z,26.8015,-97.4706,0.0,29.0,11111222 
TCOON,ioos:station:TCOON:003:1,2012-04-06T21:00:00Z,26.8015,-97.4706,0.0,28.8,11111222 
TCOON,ioos:station:TCOON:003:1,2012-04-06T22:00:00Z,26.8015,-97.4706,0.0,28.8,11111222 
TCOON,ioos:station:TCOON:003:1,2012-04-06T23:00:00Z,26.8015,-97.4706,0.0,28.6,11111222 
TCOON,ioos:station:TCOON:003:1,2012-04-07T00:00:00Z,26.8015,-97.4706,0.0,28.4,11111222 
TCOON,ioos:station:TCOON:003:1,2012-04-07T01:00:00Z,26.8015,-97.4706,0.0,28.1,11111222 
TCOON,ioos:station:TCOON:003:1,2012-04-07T02:00:00Z,26.8015,-97.4706,0.0,27.9,11111222 
TCOON,ioos:station:TCOON:003:1,2012-04-07T03:00:00Z,26.8015,-97.4706,0.0,27.6,11111222 
TCOON,ioos:station:TCOON:003:1,2012-04-07T04:00:00Z,26.8015,-97.4706,0.0,27.4,11111222 
TCOON,ioos:station:TCOON:003:1,2012-04-07T05:00:00Z,26.8015,-97.4706,0.0,27.0,11111222 
TCOON,ioos:station:TCOON:003:1,2012-04-07T06:00:00Z,26.8015,-97.4706,0.0,26.8,11111222 
TCOON,ioos:station:TCOON:003:1,2012-04-07T07:00:00Z,26.8015,-97.4706,0.0,26.8,11111222 
TCOON,ioos:station:TCOON:003:1,2012-04-07T16:00:00Z,26.8015,-97.4706,0.0,26.2,11111222 
TCOON,ioos:station:TCOON:003:1,2012-04-07T17:00:00Z,26.8015,-97.4706,0.0,26.7,11111222 
TCOON,ioos:station:TCOON:003:1,2012-04-07T18:00:00Z,26.8015,-97.4706,0.0,27.0,11111222 
TCOON,ioos:station:TCOON:003:1,2012-04-07T19:00:00Z,26.8015,-97.4706,0.0,27.5,11111222 
TCOON,ioos:station:TCOON:003:1,2012-04-07T20:00:00Z,26.8015,-97.4706,0.0,27.8,11111222 
TCOON,ioos:station:TCOON:003:1,2012-04-07T21:00:00Z,26.8015,-97.4706,0.0,28.1,11111222 
TCOON,ioos:station:TCOON:003:1,2012-04-07T22:00:00Z,26.8015,-97.4706,0.0,27.9,11111222 
TCOON,ioos:station:TCOON:003:1,2012-04-07T23:00:00Z,26.8015,-97.4706,0.0,27.6,11111222 
TCOON,ioos:station:TCOON:003:1,2012-04-08T00:00:00Z,26.8015,-97.4706,0.0,27.3,11111222 
TCOON,ioos:station:TCOON:003:1,2012-04-08T01:00:00Z,26.8015,-97.4706,0.0,27.0,11111222 
TCOON,ioos:station:TCOON:003:1,2012-04-08T02:00:00Z,26.8015,-97.4706,0.0,26.7,11111222 
TCOON,ioos:station:TCOON:003:1,2012-04-08T03:00:00Z,26.8015,-97.4706,0.0,26.7,11111222 
TCOON,ioos:station:TCOON:003:1,2012-04-08T04:00:00Z,26.8015,-97.4706,0.0,26.5,11111222 
TCOON,ioos:station:TCOON:003:1,2012-04-08T05:00:00Z,26.8015,-97.4706,0.0,26.3,11111222 
TCOON,ioos:station:TCOON:003:1,2012-04-08T06:00:00Z,26.8015,-97.4706,0.0,25.8,11111222 
TCOON,ioos:station:TCOON:003:1,2012-04-08T07:00:00Z,26.8015,-97.4706,0.0,25.6,11111222 
TCOON,ioos:station:TCOON:003:1,2012-04-08T08:00:00Z,26.8015,-97.4706,0.0,25.7,11111222 
TCOON,ioos:station:TCOON:003:1,2012-04-08T10:00:00Z,26.8015,-97.4706,0.0,25.4,11111222 
TCOON,ioos:station:TCOON:003:1,2012-04-08T15:00:00Z,26.8015,-97.4706,0.0,25.2,11111222 
TCOON,ioos:station:TCOON:003:1,2012-04-08T16:00:00Z,26.8015,-97.4706,0.0,25.5,11111222 
TCOON,ioos:station:TCOON:003:1,2012-04-08T17:00:00Z,26.8015,-97.4706,0.0,26.1,11111222 
TCOON,ioos:station:TCOON:003:1,2012-04-08T18:00:00Z,26.8015,-97.4706,0.0,26.5,11111222 
TCOON,ioos:station:TCOON:003:1,2012-04-08T19:00:00Z,26.8015,-97.4706,0.0,27.1,11111222 
TCOON,ioos:station:TCOON:003:1,2012-04-08T20:00:00Z,26.8015,-97.4706,0.0,27.2,11111222 
TCOON,ioos:station:TCOON:003:1,2012-04-08T21:00:00Z,26.8015,-97.4706,0.0,27.3,11111222 
TCOON,ioos:station:TCOON:003:1,2012-04-08T22:00:00Z,26.8015,-97.4706,0.0,27.2,11111222 
TCOON,ioos:station:TCOON:003:1,2012-04-08T23:00:00Z,26.8015,-97.4706,0.0,27.0,11111222 
TCOON,ioos:station:TCOON:003:1,2012-04-09T00:00:00Z,26.8015,-97.4706,0.0,27.0,11111222 
TCOON,ioos:station:TCOON:003:1,2012-04-09T01:00:00Z,26.8015,-97.4706,0.0,26.8,11111222 
TCOON,ioos:station:TCOON:003:1,2012-04-09T02:00:00Z,26.8015,-97.4706,0.0,26.6,11111222 
TCOON,ioos:station:TCOON:003:1,2012-04-09T03:00:00Z,26.8015,-97.4706,0.0,26.4,11111222 
TCOON,ioos:station:TCOON:003:1,2012-04-09T04:00:00Z,26.8015,-97.4706,0.0,26.0,11111222 
TCOON,ioos:station:TCOON:003:1,2012-04-09T05:00:00Z,26.8015,-97.4706,0.0,25.9,11111222 
TCOON,ioos:station:TCOON:003:1,2012-04-09T06:00:00Z,26.8015,-97.4706,0.0,25.8,11111222 
TCOON,ioos:station:TCOON:003:1,2012-04-09T07:00:00Z,26.8015,-97.4706,0.0,25.6,11111222 
TCOON,ioos:station:TCOON:003:1,2012-04-09T08:00:00Z,26.8015,-97.4706,0.0,25.8,11111222 
TCOON,ioos:station:TCOON:003:1,2012-04-09T09:00:00Z,26.8015,-97.4706,0.0,25.6,11111222 
TCOON,ioos:station:TCOON:003:1,2012-04-09T10:00:00Z,26.8015,-97.4706,0.0,25.2,11111222 
TCOON,ioos:station:TCOON:003:1,2012-04-09T11:00:00Z,26.8015,-97.4706,0.0,24.4,11111222 
TCOON,ioos:station:TCOON:003:1,2012-04-09T13:00:00Z,26.8015,-97.4706,0.0,24.5,11111222 
TCOON,ioos:station:TCOON:003:1,2012-04-09T14:00:00Z,26.8015,-97.4706,0.0,25.2,11111222 
TCOON,ioos:station:TCOON:003:1,2012-04-09T15:00:00Z,26.8015,-97.4706,0.0,25.7,11111222 
TCOON,ioos:station:TCOON:003:1,2012-04-09T16:00:00Z,26.8015,-97.4706,0.0,25.7,11111222 
TCOON,ioos:station:TCOON:003:1,2012-04-09T17:00:00Z,26.8015,-97.4706,0.0,26.2,11111222 
TCOON,ioos:station:TCOON:003:1,2012-04-09T18:00:00Z,26.8015,-97.4706,0.0,26.6,11111222 
TCOON,ioos:station:TCOON:003:1,2012-04-09T19:00:00Z,26.8015,-97.4706,0.0,26.8,11111222 
TCOON,ioos:station:TCOON:003:1,2012-04-09T20:00:00Z,26.8015,-97.4706,0.0,26.9,11111222 
TCOON,ioos:station:TCOON:003:1,2012-04-09T21:00:00Z,26.8015,-97.4706,0.0,26.9,11111222 
TCOON,ioos:station:TCOON:003:1,2012-04-09T22:00:00Z,26.8015,-97.4706,0.0,27.2,11111222 
TCOON,ioos:station:TCOON:003:1,2012-04-09T23:00:00Z,26.8015,-97.4706,0.0,27.2,11111222 
TCOON,ioos:station:TCOON:003:1,2012-04-10T00:00:00Z,26.8015,-97.4706,0.0,26.2,11111222 
TCOON,ioos:station:TCOON:003:1,2012-04-10T01:00:00Z,26.8015,-97.4706,0.0,25.8,11111222 
TCOON,ioos:station:TCOON:003:1,2012-04-10T02:00:00Z,26.8015,-97.4706,0.0,26.3,11111222 
TCOON,ioos:station:TCOON:003:1,2012-04-10T03:00:00Z,26.8015,-97.4706,0.0,26.0,11111222 
TCOON,ioos:station:TCOON:003:1,2012-04-10T04:00:00Z,26.8015,-97.4706,0.0,25.5,11111222 
TCOON,ioos:station:TCOON:003:1,2012-04-10T05:00:00Z,26.8015,-97.4706,0.0,24.8,11111222 
TCOON,ioos:station:TCOON:003:1,2012-04-10T06:00:00Z,26.8015,-97.4706,0.0,25.1,11111222 
TCOON,ioos:station:TCOON:003:1,2012-04-10T07:00:00Z,26.8015,-97.4706,0.0,25.0,11111222 
TCOON,ioos:station:TCOON:003:1,2012-04-10T08:00:00Z,26.8015,-97.4706,0.0,24.7,11111222 
TCOON,ioos:station:TCOON:003:1,2012-04-10T09:00:00Z,26.8015,-97.4706,0.0,24.4,11111222 
TCOON,ioos:station:TCOON:003:1,2012-04-10T15:00:00Z,26.8015,-97.4706,0.0,24.9,11111222 
TCOON,ioos:station:TCOON:003:1,2012-04-10T16:00:00Z,26.8015,-97.4706,0.0,25.0,11111222 
TCOON,ioos:station:TCOON:003:1,2012-04-10T17:00:00Z,26.8015,-97.4706,0.0,25.9,11111222 
TCOON,ioos:station:TCOON:003:1,2012-04-10T18:00:00Z,26.8015,-97.4706,0.0,26.7,11111222 
TCOON,ioos:station:TCOON:003:1,2012-04-10T19:00:00Z,26.8015,-97.4706,0.0,27.1,11111222 
TCOON,ioos:station:TCOON:003:1,2012-04-10T20:00:00Z,26.8015,-97.4706,0.0,27.4,11111222 
TCOON,ioos:station:TCOON:003:1,2012-04-10T21:00:00Z,26.8015,-97.4706,0.0,27.3,11111222 
TCOON,ioos:station:TCOON:003:1,2012-04-10T22:00:00Z,26.8015,-97.4706,0.0,27.9,11111222 
TCOON,ioos:station:TCOON:003:1,2012-04-10T23:00:00Z,26.8015,-97.4706,0.0,27.4,11111222 
TCOON,ioos:station:TCOON:003:1,2012-04-11T00:00:00Z,26.8015,-97.4706,0.0,27.0,11111222 
TCOON,ioos:station:TCOON:003:1,2012-04-11T01:00:00Z,26.8015,-97.4706,0.0,26.7,11111222 
TCOON,ioos:station:TCOON:003:1,2012-04-11T02:00:00Z,26.8015,-97.4706,0.0,26.4,11111222 
TCOON,ioos:station:TCOON:003:1,2012-04-11T05:00:00Z,26.8015,-97.4706,0.0,25.5,11111222 
TCOON,ioos:station:TCOON:003:1,2012-04-11T21:00:00Z,26.8015,-97.4706,0.0,27.6,11111222 
TCOON,ioos:station:TCOON:003:1,2012-04-11T22:00:00Z,26.8015,-97.4706,0.0,27.6,11111222 
TCOON,ioos:station:TCOON:003:1,2012-04-12T16:00:00Z,26.8015,-97.4706,0.0,24.7,11111222 
TCOON,ioos:station:TCOON:003:1,2012-04-12T17:00:00Z,26.8015,-97.4706,0.0,25.1,11111222 
TCOON,ioos:station:TCOON:003:1,2012-04-12T18:00:00Z,26.8015,-97.4706,0.0,25.4,11111222 
TCOON,ioos:station:TCOON:003:1,2012-04-12T19:00:00Z,26.8015,-97.4706,0.0,25.7,11111222 
TCOON,ioos:station:TCOON:003:1,2012-04-12T20:00:00Z,26.8015,-97.4706,0.0,25.9,11111222 
TCOON,ioos:station:TCOON:003:1,2012-04-12T21:00:00Z,26.8015,-97.4706,0.0,26.0,11111222 
TCOON,ioos:station:TCOON:003:1,2012-04-12T22:00:00Z,26.8015,-97.4706,0.0,26.0,11111222 
TCOON,ioos:station:TCOON:003:1,2012-04-12T23:00:00Z,26.8015,-97.4706,0.0,25.7,11111222 
TCOON,ioos:station:TCOON:003:1,2012-04-13T00:00:00Z,26.8015,-97.4706,0.0,25.5,11111222 
TCOON,ioos:station:TCOON:003:1,2012-04-13T01:00:00Z,26.8015,-97.4706,0.0,25.2,11111222 
TCOON,ioos:station:TCOON:003:1,2012-04-13T02:00:00Z,26.8015,-97.4706,0.0,25.0,11111222 
TCOON,ioos:station:TCOON:003:1,2012-04-13T03:00:00Z,26.8015,-97.4706,0.0,24.9,11111222 
TCOON,ioos:station:TCOON:003:1,2012-04-13T04:00:00Z,26.8015,-97.4706,0.0,24.7,11111222 
TCOON,ioos:station:TCOON:003:1,2012-04-13T05:00:00Z,26.8015,-97.4706,0.0,24.5,11111222 
TCOON,ioos:station:TCOON:003:1,2012-04-13T06:00:00Z,26.8015,-97.4706,0.0,24.3,11111222 
TCOON,ioos:station:TCOON:003:1,2012-04-13T16:00:00Z,26.8015,-97.4706,0.0,24.7,11111222 
TCOON,ioos:station:TCOON:003:1,2012-04-13T17:00:00Z,26.8015,-97.4706,0.0,25.3,11111222 
TCOON,ioos:station:TCOON:003:1,2012-04-13T18:00:00Z,26.8015,-97.4706,0.0,25.8,11111222 
TCOON,ioos:station:TCOON:003:1,2012-04-13T19:00:00Z,26.8015,-97.4706,0.0,26.2,11111222 
TCOON,ioos:station:TCOON:003:1,2012-04-13T20:00:00Z,26.8015,-97.4706,0.0,26.4,11111222 
TCOON,ioos:station:TCOON:003:1,2012-04-13T21:00:00Z,26.8015,-97.4706,0.0,26.5,11111222 
TCOON,ioos:station:TCOON:003:1,2012-04-13T22:00:00Z,26.8015,-97.4706,0.0,26.4,11111222 
TCOON,ioos:station:TCOON:003:1,2012-04-13T23:00:00Z,26.8015,-97.4706,0.0,26.3,11111222 
TCOON,ioos:station:TCOON:003:1,2012-04-14T00:00:00Z,26.8015,-97.4706,0.0,26.1,11111222 
TCOON,ioos:station:TCOON:003:1,2012-04-14T01:00:00Z,26.8015,-97.4706,0.0,25.9,11111222 
TCOON,ioos:station:TCOON:003:1,2012-04-14T02:00:00Z,26.8015,-97.4706,0.0,25.8,11111222 
TCOON,ioos:station:TCOON:003:1,2012-04-14T03:00:00Z,26.8015,-97.4706,0.0,25.7,11111222 
TCOON,ioos:station:TCOON:003:1,2012-04-14T04:00:00Z,26.8015,-97.4706,0.0,25.5,11111222 
TCOON,ioos:station:TCOON:003:1,2012-04-14T05:00:00Z,26.8015,-97.4706,0.0,25.4,11111222 
TCOON,ioos:station:TCOON:003:1,2012-04-14T06:00:00Z,26.8015,-97.4706,0.0,25.3,11111222 
TCOON,ioos:station:TCOON:003:1,2012-04-14T07:00:00Z,26.8015,-97.4706,0.0,25.2,11111222 
TCOON,ioos:station:TCOON:003:1,2012-04-14T08:00:00Z,26.8015,-97.4706,0.0,25.1,11111222 
TCOON,ioos:station:TCOON:003:1,2012-04-14T09:00:00Z,26.8015,-97.4706,0.0,25.0,11111222 
TCOON,ioos:station:TCOON:003:1,2012-04-14T10:00:00Z,26.8015,-97.4706,0.0,24.9,11111222 
TCOON,ioos:station:TCOON:003:1,2012-04-14T15:00:00Z,26.8015,-97.4706,0.0,24.8,11111222 
TCOON,ioos:station:TCOON:003:1,2012-04-14T16:00:00Z,26.8015,-97.4706,0.0,25.0,11111222 
TCOON,ioos:station:TCOON:003:1,2012-04-14T17:00:00Z,26.8015,-97.4706,0.0,25.4,11111222 
TCOON,ioos:station:TCOON:003:1,2012-04-14T18:00:00Z,26.8015,-97.4706,0.0,25.8,11111222 
TCOON,ioos:station:TCOON:003:1,2012-04-14T19:00:00Z,26.8015,-97.4706,0.0,26.1,11111222 
TCOON,ioos:station:TCOON:003:1,2012-04-14T20:00:00Z,26.8015,-97.4706,0.0,26.2,11111222 
TCOON,ioos:station:TCOON:003:1,2012-04-14T21:00:00Z,26.8015,-97.4706,0.0,26.4,11111222 
TCOON,ioos:station:TCOON:003:1,2012-04-14T22:00:00Z,26.8015,-97.4706,0.0,26.5,11111222 
TCOON,ioos:station:TCOON:003:1,2012-04-14T23:00:00Z,26.8015,-97.4706,0.0,26.5,11111222 
TCOON,ioos:station:TCOON:003:1,2012-04-15T00:00:00Z,26.8015,-97.4706,0.0,26.4,11111222 
TCOON,ioos:station:TCOON:003:1,2012-04-15T01:00:00Z,26.8015,-97.4706,0.0,26.2,11111222 
TCOON,ioos:station:TCOON:003:1,2012-04-15T02:00:00Z,26.8015,-97.4706,0.0,26.1,11111222 
TCOON,ioos:station:TCOON:003:1,2012-04-15T03:00:00Z,26.8015,-97.4706,0.0,26.0,11111222 
TCOON,ioos:station:TCOON:003:1,2012-04-15T04:00:00Z,26.8015,-97.4706,0.0,25.9,11111222 
TCOON,ioos:station:TCOON:003:1,2012-04-15T05:00:00Z,26.8015,-97.4706,0.0,25.7,11111222 
TCOON,ioos:station:TCOON:003:1,2012-04-15T06:00:00Z,26.8015,-97.4706,0.0,25.6,11111222 
TCOON,ioos:station:TCOON:003:1,2012-04-15T07:00:00Z,26.8015,-97.4706,0.0,25.5,11111222 
TCOON,ioos:station:TCOON:003:1,2012-04-15T08:00:00Z,26.8015,-97.4706,0.0,25.4,11111222 
TCOON,ioos:station:TCOON:003:1,2012-04-15T09:00:00Z,26.8015,-97.4706,0.0,25.3,11111222 
TCOON,ioos:station:TCOON:003:1,2012-04-15T10:00:00Z,26.8015,-97.4706,0.0,25.2,11111222 
TCOON,ioos:station:TCOON:003:1,2012-04-15T11:00:00Z,26.8015,-97.4706,0.0,25.0,11111222 
TCOON,ioos:station:TCOON:003:1,2012-04-15T12:00:00Z,26.8015,-97.4706,0.0,24.9,11111222 
TCOON,ioos:station:TCOON:003:1,2012-04-15T13:00:00Z,26.8015,-97.4706,0.0,24.9,11111222 
TCOON,ioos:station:TCOON:003:1,2012-04-15T14:00:00Z,26.8015,-97.4706,0.0,25.0,11111222 
TCOON,ioos:station:TCOON:003:1,2012-04-15T15:00:00Z,26.8015,-97.4706,0.0,25.3,11111222 
TCOON,ioos:station:TCOON:003:1,2012-04-15T16:00:00Z,26.8015,-97.4706,0.0,25.5,11111222 
TCOON,ioos:station:TCOON:003:1,2012-04-15T17:00:00Z,26.8015,-97.4706,0.0,25.9,11111222 